Location: Newark
(48.2308°N, 120.8549°W)
Time: 07:41:19
(UTC+00:00)

Tiangong - Pass Details

Date: 27 June 2021
Orbit: 373 x 386 km, 41.5° (Epoch: 03 August)

Event Time Altitude Azimuth Distance (km) Brightness Sun altitude
Exits shadow 09:49:16 19° 147° (SSE) 962 2.8 -14.9°
Drops below altitude 10° 09:50:52 10° 120° (ESE) 1,388 3.8 -14.7°
Sets 09:53:12 0° 105° (ESE) 2,243 5.1 -14.6°
